sat.trackr.live / text

‹ back to catalog

ONEWEB-0281

NORAD 48999 · 2021-060AJ

PAYLOAD ACTIVE UNKNOWN

§ Identity

Operator
Country
UK
Launch date
2021-07-01
Launch site
VOSTO
Launch vehicle
Mass (kg)
RCS (m²)

Purposes: comms

External: N2YO · Heavens-Above · Gunter

§ Orbital elements

Epoch: 2026-05-25T04:35:25.484352Z

Period
109.37 min
Inclination
87.9107°
Eccentricity
0.0002031
Mean motion
13.16593734 rev/d
Perigee alt
1,196.2 km
Apogee alt
1,199.3 km
Semi-major
7,575.9 km
B*
-1.9034e-5
RAAN
233.3367°
Arg perigee
102.1538°
Mean anomaly
257.9821°
Rev number
23,660

§ Raw data

ONEWEB-02811 48999U 21060AJ  26145.19126718  .00000006  00000+0 -19034-4 0  99982 48999  87.9107 233.3367 0002031 102.1538 257.9821 13.16593734236609

JSON: /api/v1/satellites/48999 · /tle

For live sub-satellite position, see the globe view (requires WebGL).

§ Visibility from observer

Set your observer location to see the next 7 days of passes ≥ 10°. The values pass through the URL so the page stays shareable.

No JS? Fill the form by hand. The geolocation button needs JavaScript.